Home > Weather > Montgomery > Past weeks

Flag for USA Past Weather in Montgomery, Alabama, USA — Yesterday and Last 2 Weeks

Now
80 °F

Scattered clouds.


Feels Like: 84 °F
Forecast: 72 / 90 °F
Wind: 3 mph from Southwest

Location: Maxwell Air Force Base / Montgomery

Current Time: Jun 29, 2016 at 8:53:20 PM

Latest Report: Jun 29, 2016 at 7:58 PM


Visibility: 10 mi

Pressure: 29.93 "Hg

Humidity: 78%

Dew Point: 72 °F

Location of MontgomeryLocation

Past Weather in Montgomery — Graph

°F

Montgomery Temperature Yesterday

Maximum temperature yesterday: 90 °F (at 3:58 PM)
Minimum temperature yesterday: 72 °F (at 4:58 AM)
Average temperature yesterday: 79 °F

High & Low Weather Summary for the Past Weeks

 TemperatureHumidityPressure
High98 °F (Jun 25, 2:58 PM)100% (Jun 15, 2:58 PM)30.31 "Hg (Jun 15, 2:58 PM)
Low65 °F (Jun 21, 5:58 AM)33% (Jun 21, 12:58 PM)29.77 "Hg (Jun 17, 7:58 PM)
Average80 °F74%30.05 "Hg
* Reported Jun 14 6:04 PM — Jun 29 6:58 PM, Montgomery, Weather by CustomWeather, © 2016

Note: Actual official high and low records may vary slightly from our data, if they occured in-between our weather recording intervals... More about our weather records

Advertising

Montgomery Weather History for the Previous 24 Hours

Scroll right to see more
 ConditionsComfort  
Time TempWeatherWind HumidityBarometerVisibility
6:58 PM
Wed, Jun 29
83 °FPassing clouds.5 mph67%29.92 "Hg10 mi
5:58 PM85 °FScattered clouds.5 mph61%29.91 "Hg10 mi
4:58 PM84 °FPartly sunny.1 mph60%29.91 "Hg10 mi
3:58 PM81 °FPassing clouds.9 mph63%29.93 "Hg10 mi
2:58 PM92 °FSunny.8 mph53%29.92 "Hg10 mi
1:58 PM90 °FSunny.3 mph49%29.95 "Hg10 mi
12:58 PM88 °FSunny.1 mph61%29.96 "Hg10 mi
11:58 AM85 °FPassing clouds.3 mph67%29.99 "Hg10 mi
10:58 AM82 °FScattered clouds.3 mph77%30.00 "Hg10 mi
9:58 AM80 °FScattered clouds.2 mph80%29.99 "Hg10 mi
8:58 AM78 °FScattered clouds.2 mph85%29.99 "Hg10 mi
7:58 AM77 °FPartly sunny.3 mph88%29.98 "Hg10 mi
6:58 AM77 °FBroken clouds.2 mph90%29.96 "Hg10 mi
5:58 AM76 °FPassing clouds.1 mph93%29.95 "Hg10 mi
4:58 AM76 °FOvercast.2 mph90%29.93 "Hg10 mi
3:58 AM77 °FMostly cloudy.3 mph92%29.92 "Hg10 mi
2:58 AM78 °FOvercast.2 mph82%29.93 "Hg10 mi
1:58 AM78 °FPassing clouds.3 mph84%29.94 "Hg10 mi
12:58 AM79 °FOvercast.2 mph82%29.96 "Hg10 mi
11:58 PM
Tue, Jun 28
79 °FPassing clouds.3 mph90%29.97 "Hg10 mi
10:58 PM80 °FPassing clouds.3 mph91%29.97 "Hg10 mi
10:00 PM79 °FPassing clouds.2 mph94%29.97 "Hg10 mi
8:58 PM79 °FLight rain. Passing clouds.2 mph94%29.96 "Hg8 mi
Weather by CustomWeather, © 2016

See weather overviewHow to use our weather pages